Location: Cabo di Oristano
(39.8500°N, 8.4333°E)
Time: 16:26:29
(UTC+00:00)

SKYMED 2 - Pass Details

Date: 31 January 2023
Orbit: 621 x 623 km, 97.9° (Epoch: 01 April)

Event Time Altitude Azimuth Distance (km) Brightness Sun altitude
Rises 05:10:58 0° 184° (S) 2,887 7.1 -16.5°
Reaches altitude 10° 05:13:16 10° 192° (SSW) 1,986 6.1 -16.0°
Maximum altitude 05:17:18 39° 262° (W) 939 4.0 -15.3°
Enters shadow 05:21:16 11° 331° (NNW) 1,950 5.7 -14.5°
